Tracking 30995 objects as of 7-Jul-2025
HD Live streaming from Space Station
objects crossing your sky now

STARLINK-30457

Track STARLINK-30457 now!
10-day predictions
STARLINK-30457 is classified as:


NORAD ID: 57900
Int'l Code: 2023-146K
Perigee: 565.1 km
Apogee: 567.4 km
Inclination: 43.0 °
Period: 95.8 minutes
Semi major axis: 6937 km
RCS: Unknown
Launch date: September 20, 2023
Source: United States (US)
Launch site: AIR FORCE EASTERN TEST RANGE (AFETR)
Your satellite tracking list
TITAN 34B AGENA D DEB
Track 1 satellite(s)




NASA's NSSDC Master Catalog

Two Line Element Set (TLE):
1 57900U 23146K   25187.41960446  .00000171  00000-0  27724-4 0  9999
2 57900  43.0029 211.2720 0001664 286.2232  73.8427 15.02539219 98968
Source of the keplerian elements: AFSPC